GFSNGP_850_spd_057.txt.gz
Wind_Speed
4 4 5 5 5 12 11 10 8 11 10 10 7 4 5 7 6 7 6 3 8 9 9 8 8 9 11 13 14 16 15 15 14 12 12 14 15 14 14 17 19 16 15 12
3 2 7 5 8 7 7 4 9 8 7 11 4 4 1 3 6 10 12 12 8 5 4 4 3 3 3 3 4 4 5 5 5 6 8 8 11 14 16 18 15 12 7 13
5 2 5 4 7 9 5 5 6 8 11 6 6 6 6 6 10 12 14 16 17 15 12 9 7 5 4 3 2 2 3 2 2 5 9 13 14 15 16 11 9 6 14 19
3 1 4 3 1 3 9 6 8 4 4 4 5 8 9 9 11 13 15 15 16 15 14 12 9 7 6 6 6 6 6 7 9 11 11 13 13 10 7 5 10 18 24 19
5 4 3 2 5 7 7 11 7 11 5 6 16 12 4 10 12 14 15 15 14 12 10 10 9 9 9 10 10 10 11 11 13 14 14 10 8 4 12 17 21 15 12 13
3 5 8 8 4 8 4 8 9 13 11 18 17 7 5 14 13 14 13 13 13 13 12 11 13 12 11 15 12 14 16 15 14 10 4 7 12 12 11 8 10 14 18 21
3 4 5 6 6 12 6 9 10 20 18 25 10 3 21 19 17 15 15 15 14 15 15 15 16 13 18 19 16 13 10 6 2 6 7 6 5 6 9 13 16 18 21 22
3 1 7 11 8 9 8 7 11 22 25 24 15 19 24 21 19 17 17 18 16 18 20 20 18 15 18 15 13 8 3 4 3 2 3 5 8 11 13 16 20 23 26 29
9 6 2 28 9 22 9 8 11 25 29 33 25 26 25 24 21 20 19 21 21 23 24 22 18 13 13 11 6 3 1 0 1 3 5 8 11 14 17 20 24 27 29 33
2 4 5 13 19 13 17 13 11 23 33 33 27 28 27 25 24 24 23 23 23 22 22 20 15 11 9 8 4 2 1 1 3 6 9 12 15 18 20 21 23 25 25 26
4 4 5 17 24 24 18 14 16 22 30 31 29 29 28 28 27 27 26 24 22 20 19 17 13 9 8 6 3 0 2 5 8 11 14 16 18 19 20 20 21 22 21 20
6 13 11 11 22 24 20 20 23 28 28 27 28 31 30 30 29 28 27 24 21 18 16 15 11 9 6 4 2 3 7 9 12 15 17 19 20 21 21 21 22 21 20 21
3 10 16 10 11 21 24 25 27 29 30 31 28 30 31 33 30 28 25 22 19 17 14 12 10 6 4 2 5 8 10 12 15 16 18 19 21 23 25 23 22 21 22 24
16 12 8 15 12 21 25 27 27 26 27 28 31 31 31 32 30 26 24 20 18 15 13 10 6 3 2 5 8 10 12 13 14 16 17 19 20 22 22 24 23 24 26 27
17 19 14 18 18 26 27 29 29 29 29 30 30 33 33 33 30 26 23 20 17 13 11 7 3 1 4 7 9 10 12 13 14 15 17 18 19 20 21 23 25 27 29 29
19 15 13 20 27 30 31 31 33 32 32 34 35 34 33 31 28 25 21 17 13 11 8 4 1 4 6 8 10 11 12 13 14 16 17 18 19 20 21 22 24 26 28 30
17 13 21 23 28 27 27 27 28 32 34 36 36 35 33 30 26 23 20 15 11 7 4 1 4 6 9 10 11 11 12 14 15 16 17 18 19 20 21 22 24 25 26 26
13 15 19 27 33 28 26 26 30 33 35 35 34 30 28 25 24 21 17 13 8 4 1 4 7 9 10 11 11 12 13 15 16 17 17 18 19 19 21 22 23 24 25 25
10 13 19 25 27 31 30 29 29 30 30 28 26 24 21 20 19 16 12 8 4 0 3 6 8 10 11 11 12 14 14 15 15 16 17 18 18 19 20 21 22 22 24 25
18 17 19 22 24 26 29 29 30 29 28 24 23 23 20 16 12 9 8 5 2 2 4 7 9 10 12 12 13 14 15 15 16 16 17 17 18 18 19 19 21 22 23 24
20 22 23 24 26 26 28 29 30 29 25 22 18 15 13 12 11 8 6 3 2 3 5 8 10 11 12 13 14 15 15 15 16 17 17 17 18 18 18 19 21 22 23 24
22 23 26 28 30 30 28 26 24 26 22 17 14 11 12 12 10 7 4 2 3 5 7 10 12 13 14 14 15 15 16 16 16 17 17 17 18 19 19 20 21 23 24 25
23 24 27 28 29 29 27 25 20 16 16 12 12 13 10 8 6 3 3 4 5 7 9 11 13 15 15 15 15 16 17 16 16 16 17 18 19 20 20 21 22 24 24 25
25 27 29 29 29 27 25 21 16 14 13 14 11 8 5 3 3 4 5 5 7 9 11 13 15 16 16 15 16 17 17 17 17 17 17 18 19 20 20 21 22 23 24 25
28 27 26 24 21 20 19 18 16 13 10 8 6 3 2 3 5 5 6 8 9 11 14 16 17 17 17 16 16 17 17 17 17 17 18 19 19 20 21 21 22 23 24 25
23 22 20 18 17 15 13 12 9 8 4 1 1 3 5 6 7 8 9 10 12 14 16 17 18 17 17 16 17 17 18 17 17 18 19 19 20 20 21 21 22 22 23 23
19 17 16 15 12 10 8 6 4 3 3 4 5 7 8 9 10 11 12 14 15 16 17 18 18 17 16 17 17 18 18 18 19 19 19 19 20 20 21 21 22 22 22 21

GFSNGP_850_spd_060.txt.gz
Wind_Speed
15 13 13 16 15 15 17 17 15 12 12 10 12 11 7 4 3 3 2 2 6 8 8 8 8 7 9 8 8 9 7 8 7 7 5 7 8 9 12 12 11 15 15 16
16 14 13 16 16 17 17 17 12 16 14 12 13 6 7 4 4 4 5 6 6 8 10 10 10 9 7 6 7 7 7 5 5 4 5 5 6 9 9 11 13 16 13 6
12 6 6 7 15 16 15 14 15 15 14 11 9 10 9 6 6 8 10 11 12 12 12 12 12 11 11 11 11 10 9 10 8 8 8 9 10 10 11 11 8 4 9 14
5 4 7 8 2 14 18 16 16 15 13 10 10 7 8 7 10 11 12 13 13 14 16 15 15 15 15 14 14 13 12 12 11 11 11 11 10 8 3 2 7 11 14 18
5 9 10 5 5 9 11 16 18 19 17 10 8 11 7 10 11 12 12 13 13 14 15 16 16 16 15 16 15 14 15 15 13 10 6 5 3 1 5 8 10 10 7 7
4 6 9 8 14 15 6 13 11 13 13 12 16 9 7 18 16 15 14 13 14 15 16 16 17 17 18 19 18 16 15 13 12 9 5 1 4 4 2 2 3 6 10 13
8 6 5 4 8 14 9 15 2 12 12 18 14 4 21 23 19 17 17 17 16 16 17 17 18 18 20 19 17 16 14 12 7 3 1 1 1 1 3 5 9 12 15 17
6 6 10 11 11 10 13 4 8 13 15 21 14 16 22 23 21 20 20 19 18 19 19 18 18 18 18 16 15 13 9 5 4 3 2 1 1 4 6 6 10 12 15 16
8 5 2 27 16 23 7 9 9 13 15 20 21 23 25 24 23 21 20 20 20 21 21 18 16 16 17 15 12 10 8 5 4 2 0 2 4 7 7 9 11 11 12 13
4 10 11 10 19 9 10 10 7 9 16 23 26 26 26 24 24 23 22 22 22 22 21 19 17 16 13 12 9 7 6 5 3 1 3 6 7 7 7 10 11 12 12 12
16 14 6 14 18 21 15 14 14 12 18 24 27 28 28 26 25 24 23 22 21 21 21 20 18 16 12 10 9 7 5 3 1 3 4 5 7 8 8 11 13 13 12 14
8 12 12 15 10 19 21 20 16 17 21 23 28 31 29 27 26 26 26 24 22 21 22 21 17 15 13 11 9 6 3 2 3 4 6 5 5 5 13 11 12 14 14 16
18 11 13 13 10 10 15 16 18 20 22 30 27 28 28 29 27 27 25 24 23 24 22 20 17 14 12 10 7 4 2 2 4 5 5 6 7 6 6 10 15 15 16 18
12 11 8 15 6 11 14 15 18 18 22 26 28 29 29 29 29 26 25 24 25 24 21 18 16 13 10 6 3 1 2 4 4 4 5 6 7 8 8 9 9 11 15 19
16 17 15 12 11 10 12 15 19 22 25 26 27 30 31 32 29 27 27 28 26 22 19 16 14 10 7 4 1 2 3 4 5 6 7 9 9 9 9 9 10 12 13 13
15 15 12 11 10 12 15 19 22 22 24 27 28 27 27 27 27 26 26 26 23 21 19 15 11 7 4 1 1 3 4 5 6 7 9 9 10 10 10 10 11 12 13 15
8 8 10 10 11 12 15 16 18 22 23 24 26 28 28 28 27 25 24 22 18 17 14 10 6 3 1 1 2 3 5 7 7 8 9 10 11 12 12 12 13 13 13 15
7 8 8 9 16 18 16 16 19 23 27 28 33 34 32 32 29 24 21 18 14 12 8 4 3 1 2 3 4 5 6 8 9 9 10 12 12 13 13 13 14 15 16 16
1 3 7 11 13 16 20 23 25 29 29 31 32 32 28 24 22 22 20 14 8 5 5 3 1 3 4 5 5 7 8 9 10 11 11 13 13 13 13 14 15 16 17 17
9 11 13 18 19 21 24 25 27 31 32 32 31 28 26 23 22 17 13 10 8 6 3 2 3 4 6 7 8 9 9 10 10 12 12 12 13 13 13 15 16 17 17 17
16 17 19 20 23 22 26 30 34 34 30 25 25 25 23 19 14 10 9 8 6 4 3 4 4 6 8 10 10 10 11 11 11 12 12 13 13 13 14 15 16 16 17 18
19 21 24 26 29 31 30 30 30 28 27 25 20 17 15 13 11 10 8 5 5 4 4 5 7 9 10 10 11 11 11 12 12 12 12 13 14 14 15 16 17 18 19 19
25 26 29 32 33 33 30 26 24 22 20 18 14 13 10 9 8 5 4 6 5 5 6 8 10 11 12 11 12 12 12 13 13 13 13 14 15 15 16 16 17 19 19 20
30 29 30 30 30 28 27 22 20 17 15 14 11 8 6 5 4 4 4 5 6 7 9 12 13 13 13 13 13 13 13 13 14 13 14 15 15 16 16 18 18 19 20 21
29 29 27 24 22 21 19 17 16 14 12 9 7 5 2 1 2 4 6 7 9 10 13 13 14 14 14 14 14 15 15 14 13 14 14 15 16 17 17 18 19 20 21 21
25 24 22 20 19 17 15 12 12 10 7 5 2 1 3 6 7 7 8 10 11 13 14 15 16 16 15 15 15 16 15 14 13 13 16 17 17 18 19 19 20 21 21 21
26 24 22 21 18 14 12 10 7 5 3 3 4 6 7 8 8 9 10 12 14 15 15 16 16 16 16 16 15 15 15 14 16 18 19 19 19 19 20 20 21 21 20 19

GFSNGP_850_spd_063.txt.gz
Wind_Speed
20 17 13 16 20 20 20 19 18 15 17 13 6 9 9 6 4 7 7 7 9 10 10 11 13 16 20 17 16 15 13 14 14 13 12 9 8 8 8 9 10 8 10 14
19 19 18 13 16 18 19 18 17 19 19 13 9 13 8 7 5 8 6 5 6 10 12 12 12 10 12 12 12 13 12 11 11 8 8 8 7 5 6 9 8 8 9 9
17 19 19 18 18 18 18 17 15 17 16 16 12 10 9 11 9 9 8 7 9 12 13 12 11 12 12 10 11 11 10 11 11 12 12 10 10 9 7 6 7 6 6 8
7 2 12 11 16 19 21 20 16 17 18 16 15 11 7 9 12 11 12 12 13 14 15 15 15 15 16 16 16 16 16 16 16 15 13 12 9 9 7 6 5 5 7 9
8 11 13 15 8 12 15 16 16 17 17 15 3 5 7 9 11 14 15 15 17 17 18 18 18 18 18 18 17 17 17 16 16 14 12 9 8 7 5 3 3 2 2 1
6 14 17 12 16 13 14 13 17 17 8 9 10 6 9 21 19 17 16 15 17 17 18 18 18 18 19 19 18 17 17 16 14 12 11 9 3 1 3 4 3 3 3 4
11 8 8 10 13 14 11 11 11 5 7 11 9 9 8 22 21 20 18 18 18 17 17 17 18 19 20 19 18 17 16 15 12 7 6 7 7 6 5 4 2 3 5 6
8 9 11 7 10 13 15 19 9 11 11 10 11 13 20 22 23 23 22 20 19 19 18 18 18 18 19 18 17 16 14 12 10 9 8 7 6 4 2 1 2 3 8 8
9 5 7 20 16 25 14 10 9 11 10 14 20 20 22 24 25 24 23 22 20 21 21 19 18 17 18 17 16 15 13 11 9 9 7 6 5 2 2 2 3 5 6 6
6 11 12 13 15 17 9 12 10 9 11 16 22 22 25 26 26 25 24 23 23 23 22 21 19 18 17 16 15 14 13 11 10 9 6 4 2 1 2 5 5 6 6 6
17 19 22 13 12 17 17 16 14 11 13 18 21 25 27 28 28 27 26 24 23 23 22 20 19 18 16 15 14 13 12 10 8 6 5 2 3 5 5 9 8 8 8 10
9 11 12 18 20 13 20 23 17 15 16 19 23 25 28 28 28 28 28 27 25 23 23 21 20 18 16 14 13 13 11 9 7 5 4 3 2 7 9 10 10 11 11 12
16 21 19 12 15 15 11 15 16 15 16 19 22 26 28 29 29 29 27 26 25 24 23 21 18 16 14 15 14 12 10 7 6 5 4 4 3 3 3 12 15 16 16 16
21 17 12 16 11 7 5 6 10 11 14 18 21 25 28 27 27 27 26 24 23 22 20 19 18 15 13 13 12 9 6 5 3 3 3 3 4 5 5 6 7 8 12 18
23 15 17 14 9 5 5 6 7 10 13 17 20 24 25 26 27 26 25 24 22 21 19 17 16 13 10 9 8 6 5 4 4 5 6 7 7 7 7 7 8 10 10 11
22 22 15 13 11 8 6 6 10 12 15 18 21 23 24 24 25 25 23 23 25 23 21 19 15 11 9 6 4 1 3 3 4 5 6 6 6 6 6 7 9 10 11 12
7 9 8 10 9 7 6 7 9 13 16 19 20 23 26 29 27 25 23 27 27 21 19 16 12 9 5 3 4 3 3 5 5 6 7 8 8 8 9 8 9 11 11 13
5 7 6 5 5 4 5 7 10 13 17 23 29 33 33 31 27 24 26 23 22 21 16 12 5 3 3 4 5 5 6 7 7 8 9 10 10 10 9 9 10 11 12 13
4 5 7 9 10 13 15 17 19 21 24 29 34 33 29 24 28 27 24 21 17 13 9 6 4 4 3 4 5 6 7 8 8 9 10 11 9 8 9 10 11 11 12 13
9 11 11 15 16 15 21 20 22 25 25 25 25 28 30 28 25 23 20 15 10 8 7 5 3 3 4 4 6 7 8 9 9 10 10 11 8 10 10 11 12 12 13 13
18 18 20 21 22 21 22 23 26 29 29 30 31 29 27 23 18 15 12 10 8 5 3 3 3 4 5 6 7 8 9 9 9 8 8 9 9 10 11 11 12 13 13 14
22 25 27 28 30 30 28 30 32 31 27 25 23 22 21 18 14 11 7 4 4 4 2 3 4 5 8 8 8 9 8 8 8 9 9 10 11 12 12 13 13 13 14 15
27 29 33 35 37 37 32 29 26 25 24 22 20 17 15 13 10 6 4 1 2 2 1 5 8 10 12 12 11 10 9 9 10 11 11 12 12 13 13 13 14 15 15 15
31 33 34 33 31 29 28 24 23 21 20 18 16 14 10 7 5 3 3 2 2 3 7 11 13 14 14 12 10 10 10 10 12 12 13 14 13 14 14 14 15 15 16 16
31 30 27 26 27 25 23 20 20 18 16 14 11 8 5 5 2 1 4 6 6 5 11 14 15 15 14 12 11 12 11 11 13 15 13 13 14 14 15 15 15 16 18 20
27 27 26 24 21 19 18 16 17 14 11 10 9 7 6 6 5 5 6 7 9 9 9 11 13 16 12 11 13 13 13 12 12 13 15 14 14 15 15 16 16 17 18 19
27 23 22 21 20 18 16 15 13 12 10 10 7 7 7 6 8 6 6 7 8 10 9 10 11 13 13 13 12 12 13 13 14 15 15 14 14 14 15 15 17 20 21 21

GFSNGP_850_spd_069.txt.gz
Wind_Speed
16 17 18 19 14 15 16 11 7 5 8 8 8 10 11 8 21 19 24 19 22 22 22 19 17 15 13 19 22 21 23 28 27 21 16 15 14 16 15 15 16 17 18 16
16 14 18 14 15 14 12 8 5 16 13 12 17 12 13 19 21 17 19 15 10 9 28 26 22 20 16 13 18 19 23 23 20 18 14 11 12 13 14 15 15 14 14 13
12 14 15 6 18 13 14 11 10 9 9 6 7 6 8 20 25 21 21 17 12 9 21 26 27 24 21 17 12 14 14 14 14 13 13 11 12 14 14 12 13 13 12 12
4 1 15 6 10 13 15 6 5 3 3 5 7 9 6 18 29 27 25 20 17 19 25 27 25 24 22 19 18 16 12 12 12 13 13 14 14 15 15 13 13 14 14 12
9 10 7 8 4 5 6 8 5 5 6 8 18 10 7 15 25 26 22 21 20 21 24 24 21 18 17 16 17 17 17 17 16 17 19 19 17 16 17 17 17 14 12 10
2 5 14 2 6 14 4 5 5 2 5 6 6 4 4 13 16 22 22 24 25 22 21 20 19 17 17 22 23 22 22 22 20 20 18 17 16 16 16 14 11 13 15 13
2 2 6 6 8 14 5 6 9 11 9 7 6 9 16 20 19 17 22 24 24 23 21 20 19 19 22 24 23 22 21 21 21 19 17 15 15 13 14 17 17 16 15 13
3 5 13 6 4 7 6 17 22 14 8 2 10 17 26 24 22 23 24 24 23 23 23 23 24 23 25 25 24 24 24 22 21 18 16 17 17 18 16 17 18 18 18 16
7 4 6 12 11 18 4 5 6 4 7 1 22 27 29 26 25 25 26 26 25 25 27 26 25 25 27 27 26 26 24 22 21 19 19 18 19 21 21 19 18 16 14 14
1 5 2 13 15 25 14 8 8 5 4 3 17 18 24 24 24 26 26 27 26 27 27 25 24 27 28 27 26 25 23 24 25 24 22 21 21 21 21 19 17 16 16 16
3 3 7 6 13 26 21 15 21 15 13 9 7 19 21 22 23 25 26 26 24 26 26 25 24 25 26 25 24 24 25 24 24 24 24 23 21 18 16 15 14 13 13 14
5 12 13 11 16 13 15 28 19 15 14 13 9 20 21 20 23 27 25 24 23 24 24 23 23 23 22 22 23 25 24 23 22 20 19 16 15 14 12 11 10 10 12 14
3 7 11 8 19 8 5 2 5 6 7 9 7 19 20 21 23 22 22 24 27 27 27 27 27 25 23 21 21 23 22 21 20 17 15 13 10 9 9 7 8 8 9 9
10 14 5 8 7 7 4 1 3 2 1 1 6 16 19 22 23 24 27 29 31 32 30 28 26 22 15 16 19 19 16 14 14 14 13 12 10 8 8 9 10 11 11 12
12 8 8 9 6 3 3 1 5 6 2 2 10 21 26 30 29 30 31 32 33 32 28 26 24 18 14 13 13 11 11 11 5 3 4 6 6 9 10 11 11 12 13 13
12 15 12 13 10 12 7 5 8 11 14 18 23 27 31 34 36 36 35 34 35 30 25 21 18 15 13 11 10 8 4 7 11 8 6 6 9 10 12 12 11 12 13 14
16 10 10 13 13 10 7 9 12 13 18 20 25 30 34 36 36 34 31 27 27 26 20 15 12 9 9 10 11 10 10 11 8 6 8 9 10 12 13 14 13 13 14 16
9 6 3 3 10 11 12 13 14 15 17 22 26 29 32 32 35 33 31 27 20 14 9 11 14 14 11 8 6 5 4 3 5 7 9 11 12 12 13 13 14 14 15 16
3 4 5 9 12 14 17 19 20 22 24 26 28 30 30 30 28 25 19 15 14 16 15 11 9 8 6 4 2 2 4 6 8 10 12 12 12 13 14 14 15 15 16 18
10 10 12 16 17 17 20 19 22 25 28 29 30 31 30 26 21 20 19 20 16 13 11 7 5 4 4 4 6 7 8 8 9 10 11 11 12 11 13 15 13 15 17 18
23 23 25 27 29 27 28 27 29 31 28 26 27 28 28 25 22 18 16 17 14 10 8 7 6 5 6 7 7 7 8 9 10 10 11 12 12 14 15 16 17 19 19 20
26 28 30 31 32 32 30 30 30 30 30 31 31 28 24 22 18 17 15 13 12 9 8 7 7 5 5 5 6 8 9 10 10 12 12 13 15 17 18 18 20 20 19 21
32 34 35 36 37 37 35 34 33 31 30 27 24 22 22 20 16 15 17 11 8 6 5 6 7 6 7 6 8 9 10 11 12 12 13 14 14 15 16 15 15 19 21 23
34 35 35 34 34 34 35 31 29 28 26 23 22 19 15 14 15 13 10 6 5 0 5 8 9 10 8 9 9 10 11 13 14 14 16 18 18 17 16 18 20 19 21 23
34 34 34 33 33 30 26 24 23 21 20 21 19 16 13 11 11 11 7 6 5 5 8 10 14 13 12 11 11 13 13 12 13 16 16 17 20 22 23 20 18 21 24 26
29 30 29 28 27 25 24 21 22 19 18 19 18 15 13 12 11 9 7 7 7 6 6 10 11 12 14 14 15 14 14 16 16 17 19 21 23 23 21 21 22 24 25 26
27 25 24 24 20 18 18 18 17 18 15 13 15 13 11 9 7 4 5 6 6 8 9 9 10 11 12 13 14 15 17 17 18 18 20 22 23 23 22 21 22 22 23 23

GFSNGP_850_spd_072.txt.gz
Wind_Speed
9 11 9 14 15 8 12 8 9 11 11 14 9 8 13 20 22 26 27 30 26 21 20 19 19 22 30 38 38 38 38 36 31 31 31 32 30 31 29 25 27 29 25 24
9 13 10 17 18 11 10 7 9 8 11 9 17 19 16 19 19 21 33 28 29 25 25 23 21 21 26 32 36 38 40 35 31 28 23 21 18 19 22 24 24 26 28 26
6 13 6 10 17 16 10 8 6 7 10 8 10 10 16 23 28 27 29 26 28 28 30 27 24 23 23 25 26 27 25 25 23 24 21 22 19 21 21 22 24 24 23 20
4 5 8 7 13 17 18 19 11 6 5 9 12 25 26 21 29 28 33 30 25 22 28 31 28 23 21 21 21 20 19 19 21 21 22 23 22 22 22 22 20 19 18 17
5 7 4 7 10 15 12 9 6 8 9 7 6 7 4 13 26 31 33 29 26 22 22 28 27 24 22 20 18 19 22 24 24 23 23 22 20 21 21 21 20 20 20 21
2 6 8 4 19 15 4 6 6 6 7 5 8 4 5 16 29 34 28 24 22 21 21 24 25 23 21 19 19 20 21 21 22 22 21 21 22 23 22 21 23 22 21 19
2 2 5 7 7 16 10 7 11 9 10 6 5 9 11 21 24 25 24 22 22 21 21 23 23 21 19 18 19 19 18 20 21 20 20 19 20 22 22 22 21 21 20 19
1 2 4 6 7 6 4 9 9 11 14 10 8 6 14 27 29 28 26 25 24 22 21 20 20 19 18 19 19 20 20 19 18 18 18 18 19 20 19 19 19 20 20 20
8 6 4 2 4 4 9 16 14 14 12 11 14 17 25 29 29 29 29 26 23 20 19 17 17 16 16 18 19 18 16 16 14 15 15 16 18 19 19 17 17 18 19 18
2 4 5 2 7 12 9 13 20 22 16 9 10 13 25 24 26 26 26 24 21 19 18 18 18 16 15 16 16 14 15 15 16 17 19 18 16 15 14 16 17 16 16 16
3 1 1 4 7 13 20 12 20 19 16 14 8 12 20 24 27 27 23 24 21 20 21 22 21 19 18 17 17 17 17 18 17 17 17 18 18 17 17 16 12 12 13 12
5 11 9 14 19 18 19 16 13 13 9 7 5 9 15 20 23 23 26 25 24 25 27 25 23 23 23 21 20 20 20 20 20 20 19 17 17 16 13 11 11 12 13 14
3 6 13 11 12 22 16 8 15 8 9 8 8 10 15 19 20 24 27 27 28 29 27 27 26 25 23 22 21 21 21 21 20 17 15 12 8 6 7 8 9 10 10 11
8 4 1 13 11 13 13 10 7 3 1 0 1 7 15 22 27 30 28 28 30 30 29 29 29 26 23 23 23 23 22 19 16 13 10 7 7 7 11 11 10 12 12 12
15 4 6 9 15 14 11 7 4 2 1 2 10 18 25 30 30 30 30 32 33 32 30 28 27 25 21 20 22 22 17 13 10 9 9 12 15 13 10 13 12 12 13 14
9 15 14 18 18 13 8 6 5 9 9 15 19 27 30 32 33 32 33 33 33 32 29 28 29 26 20 14 10 10 9 9 11 13 12 9 11 11 10 10 11 12 14 16
7 11 13 11 10 11 11 10 9 12 15 19 24 26 29 32 33 32 31 30 30 30 24 15 13 9 7 7 7 8 7 5 6 6 6 6 7 8 9 11 13 14 15 16
7 7 6 6 7 10 13 13 16 18 20 22 26 28 31 32 35 35 33 28 21 19 16 14 12 10 9 8 5 4 3 3 3 3 5 6 8 10 11 12 13 14 15 16
4 5 5 6 7 11 15 17 19 22 24 26 29 31 33 37 34 28 22 19 18 18 18 13 11 9 7 5 3 3 2 3 4 6 7 9 10 10 10 12 13 15 16 16
10 9 10 13 14 15 20 21 23 26 27 29 34 34 32 28 25 25 22 26 23 21 16 13 10 8 7 6 5 6 7 8 7 7 8 8 9 10 12 13 13 15 17 19
22 20 23 24 27 27 28 28 31 35 33 31 32 32 31 27 24 23 24 27 20 15 13 11 9 9 8 8 8 7 7 7 8 9 10 10 11 12 14 15 17 18 18 19
27 30 31 33 35 35 32 32 33 34 34 33 32 31 29 27 24 24 22 21 17 12 11 10 9 8 6 6 7 7 8 9 10 10 11 12 13 14 15 17 18 19 19 21
31 33 35 36 37 37 36 35 34 33 32 30 28 26 26 24 20 19 20 13 10 10 10 10 9 8 6 7 8 9 10 11 12 13 13 14 16 17 17 18 19 21 22 22
35 36 36 34 33 34 35 31 29 28 28 26 24 21 18 17 19 16 13 9 6 6 8 9 9 9 9 10 11 11 12 12 12 13 14 15 16 18 20 22 22 20 19 22
33 32 31 30 30 29 27 26 26 24 23 22 20 17 15 14 12 13 8 7 6 7 9 11 12 12 13 13 12 12 12 13 14 15 16 17 18 19 20 21 21 21 23 24
27 27 26 25 25 23 22 20 22 19 17 19 18 15 14 13 12 9 7 7 7 8 9 10 11 11 12 13 14 15 15 15 16 16 16 17 20 21 20 19 19 20 22 22
25 22 22 21 19 17 16 16 16 17 14 13 14 12 9 7 6 6 5 6 7 9 8 8 10 12 13 12 12 12 13 14 14 16 18 18 18 18 18 19 20 21 21 21

GFSNGP_850_spd_075.txt.gz
Wind_Speed
12 13 5 3 3 1 5 13 13 11 16 12 10 10 9 19 20 23 26 26 30 32 29 26 25 26 29 35 38 40 40 41 42 41 44 41 38 36 38 43 41 39 40 36
8 10 12 16 10 7 5 9 5 4 9 7 16 18 9 19 17 21 31 29 30 32 28 27 24 23 26 29 32 34 35 37 38 36 36 34 32 31 33 38 42 39 35 34
4 6 4 8 9 17 6 6 6 5 7 6 8 10 13 24 21 23 29 34 35 32 31 30 26 25 26 27 30 33 34 35 36 40 32 27 23 21 20 27 27 26 24 22
2 4 5 4 10 18 14 15 14 7 8 8 12 28 30 24 24 23 26 31 32 39 37 32 29 25 24 23 25 28 30 34 36 33 23 18 18 19 20 20 21 22 24 25
3 4 4 1 4 5 7 14 10 11 12 7 19 10 11 18 19 23 23 32 31 39 36 34 30 25 22 21 22 22 21 20 19 18 19 20 23 22 22 22 23 22 20 20
3 4 5 5 13 10 1 5 5 5 6 2 4 2 6 16 16 21 25 30 32 31 29 27 26 23 22 20 20 18 15 15 15 17 21 22 21 20 20 19 20 20 19 17
4 4 7 8 5 11 4 6 12 14 13 11 2 14 13 13 18 20 26 30 25 22 21 20 21 22 21 19 18 16 18 18 17 18 18 18 19 19 20 23 22 20 20 20
3 3 6 5 0 5 4 7 6 7 9 18 26 28 22 16 20 19 23 28 23 20 19 18 19 19 18 17 16 16 15 15 15 15 15 16 17 19 20 20 21 20 20 21
6 5 5 6 2 7 6 2 1 7 14 13 12 14 20 19 21 22 25 23 22 19 18 17 18 16 15 15 14 13 14 14 14 15 15 14 16 21 21 20 18 19 20 19
3 5 9 13 8 9 6 7 11 10 11 17 18 15 12 15 17 25 23 21 19 17 16 17 16 14 10 10 11 15 17 17 15 14 15 16 18 17 16 16 16 17 17 18
4 7 7 11 17 14 12 15 12 7 5 10 14 14 11 9 12 15 15 16 17 17 18 17 15 13 12 11 13 14 14 15 13 12 14 16 16 15 16 16 13 13 15 14
7 14 9 14 22 24 20 13 9 8 5 3 6 8 12 7 9 13 14 15 16 18 18 18 17 16 15 15 14 12 15 17 16 18 18 18 19 19 17 13 13 12 11 13
8 29 15 18 17 16 18 5 2 4 5 11 11 12 10 5 8 14 18 19 18 20 20 20 20 20 20 20 20 20 19 22 22 22 22 20 18 15 13 8 5 7 9 10
21 24 9 7 7 8 12 8 6 3 2 6 11 13 13 19 15 19 21 20 22 22 21 21 23 22 22 23 23 21 21 23 22 20 18 15 11 8 8 10 11 10 11 14
20 20 20 6 9 11 10 10 10 8 6 6 8 12 17 22 23 23 21 22 23 23 23 22 22 21 20 21 22 24 19 16 11 10 9 8 8 9 9 10 12 12 12 11
18 14 5 11 12 11 8 7 8 9 9 11 13 16 21 25 26 25 24 24 26 28 27 27 28 26 21 14 9 9 8 6 4 4 3 4 5 6 6 6 7 7 8 9
19 11 15 14 10 9 9 7 7 10 12 14 17 19 22 25 27 27 28 30 31 31 26 21 20 14 10 8 7 7 6 5 3 2 1 1 2 4 5 6 8 9 10 11
5 4 5 5 6 8 10 10 11 13 16 19 22 24 27 28 35 36 33 29 28 28 24 20 16 14 13 11 9 8 6 5 4 2 3 4 5 6 7 8 8 9 11 12
3 4 6 5 4 6 10 12 14 17 20 21 25 29 34 37 35 32 29 27 26 26 23 17 14 13 13 11 8 7 6 5 5 5 6 7 8 8 9 9 9 10 11 13
9 9 8 10 10 10 15 17 19 22 23 28 36 37 35 32 29 27 24 29 26 24 18 15 13 13 12 10 8 8 7 7 7 7 7 7 8 9 10 11 12 14 15 16
17 16 18 20 22 22 23 23 28 34 35 33 34 35 34 31 28 26 26 29 23 17 15 13 12 12 11 10 9 9 9 9 9 9 9 9 10 11 12 14 15 16 17 18
24 26 30 31 33 34 33 33 34 35 34 34 33 32 30 29 26 26 24 24 19 15 14 13 11 10 9 9 9 10 10 10 10 9 10 10 11 12 13 14 15 17 18 20
28 30 34 36 37 37 35 34 34 33 33 31 30 28 28 26 22 21 23 18 15 13 12 12 11 9 9 9 10 10 9 9 10 10 11 12 13 14 15 17 17 18 18 19
29 32 35 35 35 35 36 32 31 30 29 27 26 23 20 20 21 18 17 14 11 10 10 10 10 10 11 11 11 10 10 11 11 11 11 12 13 13 14 15 17 18 19 20
29 30 30 30 31 31 29 27 27 25 23 22 21 18 16 16 14 15 11 10 9 9 10 10 11 11 12 11 11 10 10 11 11 12 12 13 14 15 16 17 18 19 20 21
22 24 24 24 24 22 21 19 22 20 17 19 19 17 15 14 12 9 8 9 9 10 9 9 10 10 10 10 11 11 11 12 12 13 14 14 15 16 17 18 19 21 22 22
20 20 19 20 18 16 15 17 17 18 15 13 14 12 10 8 8 7 7 7 7 8 8 8 9 10 10 11 11 11 11 12 13 14 15 16 17 18 19 20 21 21 21 21